STARLINK-1115 (44973 NORAD) Tracking and Keplerian Element Data

This shows tracking and keplerian element data for the satellite.

Feedback or suggestion? Click here.




ElementValue
Catalog44973
NameSTARLINK-1115
Epoch Orbit162
Epoch Day93.91667824
Epoch Year2020
RAAN326.4431
Inclination53.0004
Eccentricity0.0008109
Argument of Perigee324.7319
Mean Anonmoly194.4793
Mean Motion15.6275046
Decay Rate-0.00018493
L11 44973U 20001BM 20093.91667824 -.00018493 00000-0 -19616-3 0 9990
L22 44973 53.0004 326.4431 0008109 324.7319 194.4793 15.62750460 1623

Live tracking and technical data element details for STARLINK-1115 (NORAD 44973). STARLINK-1115 can be tracked NOW for your location showing map with azimuth and elevation plus other details from your city location.

Track the satellite on the map from your city or location and see movement details for azimuth, elevation, latitude, longitude, range, height, and movement on the map or in text.







IsCatalogInMostPopularTable: catalog: 44973, numindb: 62
Update: records affected: 1



GetName: 44973 STARLINK-1115

Hit Count: updated at: Mon, 06 Apr 2020 15:12:03 GMT